| time (UTC) | temp F | wind direction | speed MPH | gust MPH | rain 1hr in | rain 24hr in | rain mn in | humidity % | barometer mb |
| 20260509111006 | 53 | 233 | 12.0 | 16.0 | 0.00 | 0.10 | 0.00 | 98 | 1005.7 |
| 20260509110504 | 53 | 244 | 11.0 | 14.0 | 0.00 | 0.10 | 0.00 | 98 | 1005.7 |
| 20260509110024 | 53 | 242 | 10.0 | 14.0 | 0.00 | 0.10 | 0.00 | 98 | 1005.7 |
| 20260509105508 | 53 | 234 | 11.0 | 14.0 | 0.00 | 0.10 | 0.00 | 98 | 1005.7 |
| 20260509105009 | 53 | 239 | 10.0 | 14.0 | 0.00 | 0.10 | 0.00 | 98 | 1005.8 |
| 20260509104505 | 53 | 248 | 11.0 | 14.0 | 0.00 | 0.10 | 0.00 | 98 | 1005.8 |
| 20260509104002 | 53 | 233 | 11.0 | 13.0 | 0.00 | 0.10 | 0.00 | 98 | 1005.9 |
| 20260509103502 | 53 | 251 | 10.0 | 13.0 | 0.00 | 0.10 | 0.00 | 98 | 1005.9 |
| 20260509103016 | 53 | 238 | 10.0 | 13.0 | 0.00 | 0.10 | 0.00 | 98 | 1006.0 |
| 20260509102505 | 53 | 254 | 8.0 | 12.0 | 0.00 | 0.10 | 0.00 | 98 | 1006.0 |
| 20260509102004 | 53 | 258 | 9.0 | 11.0 | 0.00 | 0.10 | 0.00 | 98 | 1005.9 |
| 20260509101516 | 53 | 248 | 8.0 | 12.0 | 0.00 | 0.10 | 0.00 | 98 | 1005.8 |
| 20260509101004 | 53 | 242 | 9.0 | 12.0 | 0.00 | 0.10 | 0.00 | 98 | 1005.8 |
| 20260509100506 | 53 | 243 | 8.0 | 12.0 | 0.00 | 0.10 | 0.00 | 98 | 1005.8 |
| 20260509100022 | 53 | 239 | 7.0 | 12.0 | 0.00 | 0.10 | 0.00 | 98 | 1005.9 |
| 20260509095507 | 53 | 231 | 9.0 | 11.0 | 0.00 | 0.10 | 0.00 | 98 | 1005.9 |
| 20260509095010 | 53 | 246 | 8.0 | 11.0 | 0.00 | 0.10 | 0.00 | 98 | 1005.9 |
| 20260509094524 | 53 | 239 | 8.0 | 11.0 | 0.00 | 0.10 | 0.00 | 98 | 1006.0 |
| 20260509094009 | 53 | 244 | 8.0 | 10.0 | 0.00 | 0.10 | 0.00 | 98 | 1006.0 |
| 20260509093508 | 52 | 245 | 7.0 | 11.0 | 0.00 | 0.10 | 0.00 | 98 | 1006.0 |
| 20260509093006 | 52 | 236 | 8.0 | 11.0 | 0.00 | 0.10 | 0.00 | 98 | 1006.1 |
| 20260509092507 | 52 | 239 | 8.0 | 11.0 | 0.00 | 0.10 | 0.00 | 97 | 1006.0 |
| 20260509092003 | 52 | 234 | 9.0 | 11.0 | 0.00 | 0.10 | 0.00 | 97 | 1005.9 |
| 20260509091512 | 52 | 243 | 8.0 | 12.0 | 0.00 | 0.10 | 0.00 | 97 | 1006.0 |
| 20260509091003 | 52 | 244 | 8.0 | 12.0 | 0.00 | 0.10 | 0.00 | 97 | 1005.9 |
| 20260509090507 | 52 | 249 | 9.0 | 12.0 | 0.00 | 0.10 | 0.00 | 97 | 1005.9 |
| 20260509090018 | 52 | 235 | 9.0 | 12.0 | 0.00 | 0.10 | 0.00 | 97 | 1005.9 |
| 20260509085503 | 52 | 238 | 9.0 | 12.0 | 0.00 | 0.10 | 0.00 | 97 | 1006.0 |
| 20260509085003 | 52 | 234 | 9.0 | 12.0 | 0.00 | 0.10 | 0.00 | 97 | 1006.1 |
| 20260509084533 | 52 | 226 | 6.0 | 8.0 | 0.00 | 0.10 | 0.00 | 97 | 1006.2 |
| 20260509084011 | 51 | 242 | 6.0 | 8.0 | 0.00 | 0.10 | 0.00 | 97 | 1006.1 |
| 20260509083507 | 51 | 236 | 6.0 | 9.0 | 0.00 | 0.10 | 0.00 | 97 | 1006.1 |
| 20260509083033 | 51 | 226 | 6.0 | 10.0 | 0.00 | 0.10 | 0.00 | 97 | 1006.1 |
| 20260509082511 | 52 | 227 | 6.0 | 10.0 | 0.00 | 0.10 | 0.00 | 97 | 1006.1 |
| 20260509082010 | 52 | 232 | 7.0 | 10.0 | 0.00 | 0.10 | 0.00 | 97 | 1006.1 |
| 20260509081528 | 52 | 230 | 6.0 | 10.0 | 0.00 | 0.10 | 0.00 | 97 | 1006.2 |
| 20260509081004 | 52 | 226 | 7.0 | 10.0 | 0.00 | 0.10 | 0.00 | 97 | 1006.2 |
| 20260509080503 | 52 | 236 | 7.0 | 10.0 | 0.00 | 0.10 | 0.00 | 97 | 1006.3 |
| 20260509080012 | 52 | 223 | 7.0 | 10.0 | 0.00 | 0.10 | 0.00 | 97 | 1006.2 |
| 20260509075504 | 52 | 223 | 7.0 | 10.0 | 0.00 | 0.10 | 0.00 | 97 | 1006.2 |
| 20260509075004 | 52 | 222 | 8.0 | 11.0 | 0.00 | 0.10 | 0.00 | 97 | 1006.2 |
| 20260509074516 | 52 | 227 | 8.0 | 11.0 | 0.00 | 0.10 | 0.00 | 97 | 1006.2 |
| 20260509074004 | 51 | 233 | 9.0 | 12.0 | 0.00 | 0.10 | 0.00 | 97 | 1006.2 |
| 20260509073507 | 51 | 223 | 8.0 | 12.0 | 0.00 | 0.10 | 0.00 | 97 | 1006.0 |
| 20260509073023 | 51 | 226 | 8.0 | 11.0 | 0.00 | 0.10 | 0.00 | 96 | 1006.2 |
| 20260509072508 | 51 | 231 | 9.0 | 12.0 | 0.00 | 0.10 | 0.00 | 96 | 1006.2 |
| 20260509072010 | 51 | 228 | 9.0 | 12.0 | 0.00 | 0.10 | 0.00 | 96 | 1006.2 |
| 20260509071522 | 51 | 207 | 9.0 | 12.0 | 0.00 | 0.10 | 0.00 | 96 | 1006.1 |
| 20260509071010 | 51 | 208 | 9.0 | 12.0 | 0.00 | 0.10 | 0.00 | 96 | 1006.0 |
| 20260509070026 | 51 | 212 | 9.0 | 12.0 | 0.00 | 0.10 | 0.00 | 95 | 1006.1 |
| 20260509065505 | 51 | 206 | 9.0 | 12.0 | 0.00 | 0.10 | 0.00 | 95 | 1006.2 |
| 20260509065003 | 51 | 210 | 8.0 | 12.0 | 0.00 | 0.10 | 0.00 | 95 | 1006.2 |
| 20260509064521 | 52 | 203 | 8.0 | 11.0 | 0.00 | 0.10 | 0.00 | 95 | 1006.4 |
| 20260509064006 | 51 | 224 | 8.0 | 10.0 | 0.00 | 0.10 | 0.00 | 95 | 1006.4 |
| 20260509063508 | 52 | 219 | 5.0 | 8.0 | 0.00 | 0.10 | 0.00 | 95 | 1006.4 |
| 20260509063017 | 52 | 242 | 5.0 | 7.0 | 0.00 | 0.10 | 0.00 | 95 | 1006.5 |
| 20260509062509 | 52 | 250 | 6.0 | 7.0 | 0.00 | 0.10 | 0.00 | 95 | 1006.5 |
| 20260509062009 | 52 | 250 | 5.0 | 7.0 | 0.00 | 0.10 | 0.00 | 95 | 1006.5 |
| 20260509061524 | 52 | 252 | 6.0 | 7.0 | 0.00 | 0.10 | 0.00 | 94 | 1006.4 |
| 20260509061007 | 52 | 245 | 6.0 | 7.0 | 0.00 | 0.10 | 0.00 | 94 | 1006.4 |
| 20260509060508 | 52 | 250 | 6.0 | 8.0 | 0.00 | 0.10 | 0.00 | 95 | 1006.5 |
| 20260509060025 | 52 | 248 | 6.0 | 9.0 | 0.00 | 0.10 | 0.00 | 94 | 1006.5 |
| 20260509055510 | 52 | 248 | 6.0 | 9.0 | 0.00 | 0.10 | 0.00 | 94 | 1006.6 |
| 20260509055008 | 52 | 248 | 6.0 | 8.0 | 0.00 | 0.10 | 0.00 | 94 | 1006.7 |
| 20260509054526 | 52 | 245 | 6.0 | 8.0 | 0.00 | 0.10 | 0.00 | 94 | 1006.7 |
| 20260509054005 | 52 | 240 | 5.0 | 8.0 | 0.00 | 0.10 | 0.00 | 93 | 1006.8 |
| 20260509053507 | 52 | 255 | 6.0 | 8.0 | 0.00 | 0.10 | 0.00 | 93 | 1006.9 |
| 20260509053016 | 53 | 248 | 7.0 | 9.0 | 0.00 | 0.10 | 0.00 | 93 | 1006.8 |
| 20260509052505 | 53 | 254 | 7.0 | 9.0 | 0.00 | 0.10 | 0.00 | 94 | 1006.9 |
| 20260509052008 | 52 | 240 | 7.0 | 9.0 | 0.00 | 0.10 | 0.00 | 94 | 1006.8 |
| 20260509051519 | 52 | 256 | 7.0 | 8.0 | 0.00 | 0.10 | 0.00 | 93 | 1006.9 |
| 20260509051007 | 52 | 252 | 6.0 | 7.0 | 0.00 | 0.10 | 0.00 | 93 | 1006.9 |
| 20260509050509 | 53 | 251 | 6.0 | 8.0 | 0.00 | 0.10 | 0.00 | 93 | 1007.0 |
| 20260509050035 | 53 | 255 | 6.0 | 8.0 | 0.00 | 0.10 | 0.00 | 93 | 1007.0 |
| 20260509045508 | 53 | 250 | 6.0 | 8.0 | 0.00 | 0.10 | 0.10 | 93 | 1007.0 |
| 20260509045011 | 53 | 243 | 6.0 | 8.0 | 0.00 | 0.10 | 0.10 | 93 | 1007.0 |
| 20260509044527 | 53 | 240 | 6.0 | 7.0 | 0.00 | 0.10 | 0.10 | 92 | 1007.1 |
| 20260509044012 | 53 | 272 | 5.0 | 8.0 | 0.00 | 0.10 | 0.10 | 92 | 1007.1 |
| 20260509043507 | 53 | 245 | 6.0 | 8.0 | 0.00 | 0.10 | 0.10 | 92 | 1007.0 |
| 20260509043032 | 53 | 257 | 6.0 | 9.0 | 0.00 | 0.10 | 0.10 | 92 | 1007.0 |
| 20260509042004 | 53 | 238 | 7.0 | 11.0 | 0.00 | 0.10 | 0.10 | 92 | 1006.9 |
| 20260509041004 | 53 | 221 | 7.0 | 10.0 | 0.00 | 0.11 | 0.10 | 93 | 1007.0 |
| 20260509040503 | 53 | 231 | 6.0 | 10.0 | 0.00 | 0.12 | 0.10 | 92 | 1007.0 |
| 20260509040010 | 53 | 239 | 7.0 | 8.0 | 0.00 | 0.12 | 0.10 | 92 | 1007.2 |
| 20260509035504 | 53 | 233 | 6.0 | 10.0 | 0.00 | 0.12 | 0.10 | 92 | 1007.3 |
| 20260509034510 | 54 | 225 | 7.0 | 10.0 | 0.00 | 0.12 | 0.10 | 92 | 1007.5 |
| 20260509033504 | 54 | 244 | 6.0 | 10.0 | 0.00 | 0.12 | 0.10 | 92 | 1007.6 |
| 20260509033007 | 54 | 227 | 7.0 | 10.0 | 0.00 | 0.12 | 0.10 | 92 | 1007.6 |
| 20260509032005 | 54 | 249 | 7.0 | 10.0 | 0.00 | 0.12 | 0.10 | 92 | 1007.6 |
| 20260509031004 | 54 | 245 | 7.0 | 10.0 | 0.00 | 0.12 | 0.10 | 92 | 1007.6 |
| 20260509030504 | 54 | 247 | 7.0 | 10.0 | 0.00 | 0.12 | 0.10 | 92 | 1007.7 |
| 20260509030014 | 54 | 243 | 7.0 | 11.0 | 0.00 | 0.12 | 0.10 | 91 | 1007.7 |
| 20260509025503 | 54 | 240 | 7.0 | 11.0 | 0.00 | 0.12 | 0.10 | 91 | 1007.6 |
| 20260509025004 | 54 | 233 | 7.0 | 10.0 | 0.00 | 0.12 | 0.10 | 91 | 1007.6 |
| 20260509024511 | 54 | 243 | 8.0 | 11.0 | 0.00 | 0.12 | 0.10 | 91 | 1007.6 |
| 20260509024004 | 54 | 238 | 7.0 | 11.0 | 0.00 | 0.12 | 0.10 | 91 | 1007.6 |
| 20260509023506 | 54 | 221 | 6.0 | 9.0 | 0.00 | 0.12 | 0.10 | 91 | 1007.5 |
| 20260509023016 | 54 | 238 | 7.0 | 9.0 | 0.00 | 0.12 | 0.10 | 91 | 1007.5 |
| 20260509021510 | 54 | 237 | 7.0 | 10.0 | 0.00 | 0.12 | 0.10 | 90 | 1007.7 |
| 20260509021004 | 55 | 236 | 7.0 | 10.0 | 0.00 | 0.12 | 0.10 | 90 | 1007.6 |
| 20260509015504 | 55 | 240 | 6.0 | 9.0 | 0.00 | 0.12 | 0.10 | 90 | 1007.6 |
| 20260509015005 | 54 | 241 | 6.0 | 8.0 | 0.00 | 0.12 | 0.10 | 90 | 1007.5 |
| 20260509014510 | 54 | 239 | 5.0 | 7.0 | 0.00 | 0.12 | 0.10 | 90 | 1007.5 |
| 20260509014004 | 54 | 236 | 5.0 | 7.0 | 0.00 | 0.12 | 0.10 | 90 | 1007.5 |
| 20260509013504 | 54 | 249 | 4.0 | 6.0 | 0.00 | 0.12 | 0.10 | 90 | 1007.5 |
| 20260509013013 | 54 | 248 | 4.0 | 6.0 | 0.00 | 0.12 | 0.10 | 89 | 1007.5 |
| 20260509012503 | 55 | 256 | 4.0 | 6.0 | 0.00 | 0.12 | 0.10 | 89 | 1007.5 |
| 20260509012005 | 55 | 258 | 5.0 | 6.0 | 0.00 | 0.12 | 0.10 | 89 | 1007.4 |
| 20260509011508 | 55 | 250 | 5.0 | 6.0 | 0.00 | 0.12 | 0.10 | 88 | 1007.3 |
| 20260509010504 | 55 | 243 | 4.0 | 6.0 | 0.00 | 0.12 | 0.10 | 88 | 1007.2 |
| 20260509005504 | 56 | 254 | 5.0 | 8.0 | 0.00 | 0.12 | 0.10 | 87 | 1007.0 |
| 20260509005003 | 56 | 244 | 6.0 | 10.0 | 0.00 | 0.12 | 0.10 | 86 | 1007.0 |
| 20260509004524 | 56 | 240 | 7.0 | 10.0 | 0.00 | 0.12 | 0.10 | 86 | 1007.0 |
| 20260509004004 | 57 | 255 | 7.0 | 11.0 | 0.00 | 0.12 | 0.10 | 86 | 1007.0 |
| 20260509003504 | 57 | 249 | 8.0 | 11.0 | 0.00 | 0.12 | 0.10 | 86 | 1007.0 |
| 20260509003012 | 57 | 245 | 8.0 | 13.0 | 0.00 | 0.12 | 0.10 | 86 | 1007.0 |
| 20260509002507 | 57 | 250 | 9.0 | 13.0 | 0.00 | 0.12 | 0.10 | 86 | 1007.2 |
| 20260509002003 | 57 | 239 | 9.0 | 14.0 | 0.00 | 0.12 | 0.10 | 86 | 1007.2 |
| 20260509001512 | 57 | 243 | 10.0 | 16.0 | 0.00 | 0.12 | 0.10 | 85 | 1007.3 |
| 20260509001006 | 57 | 241 | 11.0 | 16.0 | 0.00 | 0.12 | 0.10 | 85 | 1007.2 |
| 20260509000503 | 58 | 236 | 12.0 | 16.0 | 0.00 | 0.12 | 0.10 | 85 | 1007.3 |
| 20260509000011 | 58 | 246 | 11.0 | 15.0 | 0.00 | 0.12 | 0.10 | 84 | 1007.3 |
| 20260508235503 | 58 | 248 | 12.0 | 15.0 | 0.00 | 0.12 | 0.10 | 84 | 1007.3 |
| 20260508234512 | 58 | 245 | 10.0 | 14.0 | 0.00 | 0.12 | 0.10 | 84 | 1007.5 |
| 20260508233506 | 59 | 241 | 11.0 | 15.0 | 0.00 | 0.12 | 0.10 | 84 | 1007.4 |
| 20260508232505 | 59 | 244 | 12.0 | 17.0 | 0.00 | 0.12 | 0.10 | 82 | 1007.6 |
| 20260508232008 | 59 | 225 | 14.0 | 17.0 | 0.00 | 0.12 | 0.10 | 80 | 1007.6 |
| 20260508231516 | 59 | 223 | 12.0 | 19.0 | 0.00 | 0.12 | 0.10 | 81 | 1007.6 |
| 20260508231005 | 60 | 225 | 14.0 | 19.0 | 0.00 | 0.12 | 0.10 | 79 | 1007.6 |
| 20260508230503 | 60 | 231 | 14.0 | 19.0 | 0.00 | 0.12 | 0.10 | 79 | 1007.5 |
| 20260508230015 | 60 | 246 | 14.0 | 17.0 | 0.00 | 0.12 | 0.10 | 78 | 1007.5 |
| 20260508225503 | 60 | 237 | 12.0 | 18.0 | 0.00 | 0.12 | 0.10 | 77 | 1007.6 |
| 20260508225004 | 60 | 233 | 14.0 | 18.0 | 0.00 | 0.12 | 0.10 | 76 | 1007.6 |
| 20260508224510 | 61 | 234 | 11.0 | 14.0 | 0.00 | 0.12 | 0.10 | 76 | 1007.6 |
| 20260508223504 | 61 | 240 | 10.0 | 14.0 | 0.00 | 0.12 | 0.10 | 77 | 1007.7 |
| 20260508223015 | 61 | 245 | 10.0 | 13.0 | 0.00 | 0.12 | 0.10 | 77 | 1007.7 |
| 20260508222505 | 61 | 248 | 9.0 | 13.0 | 0.00 | 0.12 | 0.10 | 78 | 1007.7 |
| 20260508222008 | 61 | 241 | 10.0 | 13.0 | 0.00 | 0.12 | 0.10 | 77 | 1007.8 |
| 20260508221515 | 60 | 245 | 9.0 | 13.0 | 0.00 | 0.12 | 0.10 | 77 | 1007.8 |
| 20260508221004 | 60 | 243 | 8.0 | 13.0 | 0.00 | 0.12 | 0.10 | 79 | 1007.8 |
| 20260508220504 | 60 | 236 | 10.0 | 14.0 | 0.00 | 0.12 | 0.10 | 78 | 1007.9 |
| 20260508220016 | 60 | 258 | 11.0 | 14.0 | 0.00 | 0.12 | 0.10 | 74 | 1008.0 |
| 20260508215504 | 60 | 247 | 9.0 | 12.0 | 0.00 | 0.12 | 0.10 | 76 | 1008.0 |
| 20260508215007 | 60 | 252 | 9.0 | 13.0 | 0.00 | 0.12 | 0.10 | 75 | 1008.0 |
| 20260508214516 | 60 | 258 | 9.0 | 13.0 | 0.00 | 0.12 | 0.10 | 74 | 1008.0 |
| 20260508214006 | 60 | 254 | 9.0 | 13.0 | 0.00 | 0.12 | 0.10 | 75 | 1008.0 |
| 20260508213506 | 60 | 252 | 9.0 | 13.0 | 0.00 | 0.12 | 0.10 | 75 | 1007.9 |
| 20260508213022 | 60 | 244 | 10.0 | 14.0 | 0.00 | 0.12 | 0.10 | 75 | 1007.9 |
| 20260508212504 | 60 | 248 | 11.0 | 14.0 | 0.00 | 0.12 | 0.10 | 73 | 1007.8 |
| 20260508212005 | 60 | 266 | 10.0 | 14.0 | 0.00 | 0.12 | 0.10 | 73 | 1007.9 |
| 20260508211518 | 60 | 270 | 11.0 | 15.0 | 0.00 | 0.12 | 0.10 | 74 | 1008.0 |
| 20260508211004 | 60 | 255 | 11.0 | 15.0 | 0.00 | 0.12 | 0.10 | 74 | 1007.9 |
| 20260508210505 | 60 | 260 | 11.0 | 15.0 | 0.00 | 0.12 | 0.10 | 78 | 1007.9 |
| 20260508210018 | 60 | 250 | 10.0 | 15.0 | 0.00 | 0.12 | 0.10 | 76 | 1007.9 |
| 20260508205506 | 60 | 260 | 12.0 | 15.0 | 0.00 | 0.12 | 0.10 | 74 | 1007.8 |
| 20260508205010 | 60 | 252 | 11.0 | 14.0 | 0.00 | 0.12 | 0.10 | 76 | 1007.9 |
| 20260508204520 | 60 | 250 | 11.0 | 14.0 | 0.00 | 0.12 | 0.10 | 75 | 1007.9 |
| 20260508204005 | 60 | 253 | 10.0 | 13.0 | 0.00 | 0.12 | 0.10 | 76 | 1008.0 |
| 20260508203504 | 60 | 259 | 10.0 | 13.0 | 0.00 | 0.12 | 0.10 | 75 | 1007.9 |
| 20260508203019 | 60 | 244 | 10.0 | 13.0 | 0.00 | 0.12 | 0.10 | 75 | 1008.0 |
| 20260508202505 | 60 | 237 | 11.0 | 13.0 | 0.00 | 0.12 | 0.10 | 73 | 1007.9 |
| 20260508202005 | 60 | 238 | 10.0 | 12.0 | 0.00 | 0.12 | 0.10 | 74 | 1007.9 |
| 20260508201524 | 60 | 255 | 9.0 | 13.0 | 0.00 | 0.12 | 0.10 | 79 | 1008.0 |
| 20260508201009 | 60 | 255 | 11.0 | 13.0 | 0.00 | 0.12 | 0.10 | 75 | 1008.2 |
| 20260508200504 | 60 | 240 | 9.0 | 13.0 | 0.00 | 0.12 | 0.10 | 72 | 1008.2 |
| 20260508200022 | 60 | 225 | 9.0 | 13.0 | 0.00 | 0.12 | 0.10 | 76 | 1007.9 |
| 20260508195504 | 60 | 226 | 11.0 | 13.0 | 0.00 | 0.12 | 0.10 | 76 | 1008.1 |
| 20260508195005 | 60 | 236 | 10.0 | 13.0 | 0.00 | 0.12 | 0.10 | 78 | 1008.3 |
| 20260508194526 | 60 | 221 | 9.0 | 14.0 | 0.00 | 0.12 | 0.10 | 81 | 1008.3 |
| 20260508194006 | 60 | 238 | 9.0 | 14.0 | 0.00 | 0.13 | 0.10 | 79 | 1008.3 |
| 20260508193505 | 60 | 241 | 10.0 | 13.0 | 0.00 | 0.13 | 0.10 | 79 | 1008.5 |
| 20260508193021 | 60 | 234 | 10.0 | 13.0 | 0.00 | 0.14 | 0.10 | 79 | 1008.6 |
| 20260508192505 | 60 | 246 | 11.0 | 14.0 | 0.00 | 0.14 | 0.10 | 78 | 1008.8 |
| 20260508192003 | 60 | 252 | 11.0 | 14.0 | 0.00 | 0.14 | 0.10 | 76 | 1008.7 |
| 20260508191516 | 60 | 255 | 11.0 | 14.0 | 0.00 | 0.14 | 0.10 | 76 | 1009.0 |
| 20260508191007 | 60 | 253 | 11.0 | 14.0 | 0.00 | 0.14 | 0.10 | 78 | 1009.1 |
| 20260508190505 | 61 | 245 | 11.0 | 16.0 | 0.00 | 0.14 | 0.10 | 78 | 1009.1 |
| 20260508190017 | 61 | 251 | 11.0 | 16.0 | 0.00 | 0.14 | 0.10 | 77 | 1008.9 |
| 20260508185504 | 61 | 253 | 12.0 | 17.0 | 0.00 | 0.14 | 0.10 | 78 | 1009.1 |
| 20260508185004 | 61 | 251 | 14.0 | 17.0 | 0.00 | 0.14 | 0.10 | 77 | 1009.1 |
| 20260508184519 | 60 | 251 | 12.0 | 17.0 | 0.01 | 0.14 | 0.10 | 81 | 1009.2 |
| 20260508184004 | 60 | 255 | 12.0 | 15.0 | 0.03 | 0.14 | 0.10 | 80 | 1009.2 |
| 20260508183503 | 60 | 255 | 10.0 | 15.0 | 0.06 | 0.14 | 0.10 | 81 | 1009.1 |
| 20260508183005 | 60 | 268 | 11.0 | 15.0 | 0.07 | 0.14 | 0.10 | 79 | 1009.2 |
| 20260508181514 | 59 | 281 | 9.0 | 13.0 | 0.09 | 0.14 | 0.10 | 84 | 1009.2 |
| 20260508181004 | 58 | 247 | 9.0 | 13.0 | 0.09 | 0.14 | 0.10 | 83 | 1009.3 |
| 20260508180503 | 58 | 262 | 6.0 | 10.0 | 0.09 | 0.14 | 0.10 | 88 | 1009.3 |
| 20260508180010 | 57 | 294 | 7.0 | 9.0 | 0.09 | 0.14 | 0.10 | 87 | 1009.5 |
| 20260508175504 | 57 | 288 | 6.0 | 9.0 | 0.10 | 0.14 | 0.10 | 88 | 1009.5 |
| 20260508175005 | 56 | 282 | 5.0 | 8.0 | 0.10 | 0.14 | 0.10 | 88 | 1009.5 |
| 20260508174517 | 56 | 264 | 6.0 | 9.0 | 0.09 | 0.13 | 0.09 | 87 | 1009.6 |
| 20260508174006 | 56 | 250 | 7.0 | 10.0 | 0.07 | 0.11 | 0.07 | 85 | 1009.6 |
| 20260508173504 | 57 | 245 | 7.0 | 11.0 | 0.04 | 0.08 | 0.04 | 85 | 1009.5 |
| 20260508173034 | 57 | 250 | 9.0 | 11.0 | 0.03 | 0.07 | 0.03 | 83 | 1009.9 |
| 20260508172504 | 57 | 236 | 8.0 | 11.0 | 0.02 | 0.06 | 0.02 | 83 | 1009.9 |
| 20260508172003 | 57 | 253 | 8.0 | 12.0 | 0.02 | 0.06 | 0.02 | 83 | 1009.9 |
| 20260508171003 | 58 | 264 | 10.0 | 13.0 | 0.01 | 0.05 | 0.01 | 79 | 1010.2 |
| 20260508170504 | 58 | 256 | 7.0 | 10.0 | 0.01 | 0.05 | 0.01 | 80 | 1010.1 |
| 20260508170010 | 58 | 266 | 7.0 | 9.0 | 0.01 | 0.05 | 0.01 | 80 | 1010.1 |
| 20260508165004 | 58 | 267 | 7.0 | 9.0 | 0.00 | 0.04 | 0.00 | 79 | 1010.0 |
| 20260508164517 | 58 | 271 | 7.0 | 10.0 | 0.00 | 0.04 | 0.00 | 79 | 1009.9 |
| 20260508164004 | 58 | 276 | 7.0 | 12.0 | 0.00 | 0.04 | 0.00 | 77 | 1010.0 |
| 20260508163504 | 59 | 271 | 9.0 | 14.0 | 0.00 | 0.04 | 0.00 | 77 | 1009.9 |
| 20260508163021 | 59 | 271 | 11.0 | 16.0 | 0.00 | 0.04 | 0.00 | 74 | 1010.1 |
| 20260508162505 | 59 | 264 | 12.0 | 16.0 | 0.00 | 0.04 | 0.00 | 73 | 1010.2 |
| 20260508162007 | 60 | 265 | 14.0 | 18.0 | 0.00 | 0.04 | 0.00 | 68 | 1010.2 |
| 20260508161529 | 61 | 273 | 13.0 | 18.0 | 0.00 | 0.04 | 0.00 | 66 | 1010.2 |
| 20260508161003 | 61 | 286 | 13.0 | 18.0 | 0.00 | 0.04 | 0.00 | 67 | 1010.2 |
| 20260508160504 | 61 | 272 | 15.0 | 20.0 | 0.00 | 0.04 | 0.00 | 66 | 1010.3 |
| 20260508155503 | 61 | 270 | 14.0 | 22.0 | 0.00 | 0.04 | 0.00 | 66 | 1010.4 |
| 20260508154509 | 61 | 269 | 18.0 | 24.0 | 0.00 | 0.04 | 0.00 | 65 | 1010.7 |
| 20260508154006 | 61 | 276 | 17.0 | 23.0 | 0.00 | 0.04 | 0.00 | 65 | 1010.8 |
| 20260508153014 | 61 | 269 | 15.0 | 21.0 | 0.00 | 0.04 | 0.00 | 66 | 1010.6 |
| 20260508152506 | 61 | 253 | 15.0 | 21.0 | 0.00 | 0.04 | 0.00 | 66 | 1010.6 |
| 20260508152007 | 61 | 269 | 14.0 | 20.0 | 0.00 | 0.04 | 0.00 | 65 | 1010.3 |
| 20260508151520 | 62 | 255 | 14.0 | 20.0 | 0.00 | 0.04 | 0.00 | 64 | 1010.2 |
| 20260508151011 | 61 | 254 | 15.0 | 19.0 | 0.00 | 0.04 | 0.00 | 65 | 1010.3 |
| 20260508150514 | 61 | 262 | 14.0 | 19.0 | 0.00 | 0.04 | 0.00 | 66 | 1010.4 |
| 20260508150009 | 61 | 268 | 14.0 | 20.0 | 0.00 | 0.04 | 0.00 | 69 | 1010.4 |
| 20260508145502 | 61 | 274 | 17.0 | 20.0 | 0.00 | 0.04 | 0.00 | 66 | 1010.5 |
| 20260508145004 | 61 | 257 | 15.0 | 18.0 | 0.00 | 0.04 | 0.00 | 67 | 1010.5 |
| 20260508144004 | 60 | 246 | 12.0 | 18.0 | 0.00 | 0.04 | 0.00 | 70 | 1010.6 |
| 20260508143505 | 60 | 248 | 15.0 | 19.0 | 0.00 | 0.04 | 0.00 | 70 | 1010.6 |
| 20260508142010 | 58 | 231 | 14.0 | 21.0 | 0.00 | 0.04 | 0.00 | 73 | 1010.6 |
| 20260508141516 | 58 | 244 | 13.0 | 21.0 | 0.00 | 0.04 | 0.00 | 72 | 1010.6 |
| 20260508141005 | 58 | 214 | 14.0 | 17.0 | 0.00 | 0.04 | 0.00 | 73 | 1010.6 |
| 20260508140506 | 57 | 238 | 14.0 | 18.0 | 0.00 | 0.04 | 0.00 | 73 | 1010.6 |
| 20260508140026 | 57 | 227 | 14.0 | 18.0 | 0.00 | 0.04 | 0.00 | 74 | 1010.7 |
| 20260508135508 | 57 | 234 | 13.0 | 17.0 | 0.00 | 0.04 | 0.00 | 75 | 1010.7 |
| 20260508135008 | 57 | 236 | 13.0 | 17.0 | 0.00 | 0.04 | 0.00 | 76 | 1010.7 |
| 20260508134508 | 56 | 231 | 12.0 | 17.0 | 0.00 | 0.04 | 0.00 | 77 | 1010.7 |
| 20260508134004 | 56 | 226 | 12.0 | 16.0 | 0.00 | 0.04 | 0.00 | 77 | 1010.8 |
| 20260508133507 | 55 | 229 | 13.0 | 16.0 | 0.00 | 0.04 | 0.00 | 75 | 1010.8 |
| 20260508132505 | 55 | 209 | 11.0 | 16.0 | 0.00 | 0.04 | 0.00 | 76 | 1010.8 |
| 20260508130024 | 53 | 161 | 8.0 | 11.0 | 0.00 | 0.04 | 0.00 | 79 | 1011.0 |
| 20260508125507 | 53 | 157 | 7.0 | 9.0 | 0.00 | 0.04 | 0.00 | 80 | 1011.1 |
| 20260508125008 | 53 | 166 | 7.0 | 9.0 | 0.00 | 0.04 | 0.00 | 80 | 1011.1 |
| 20260508124523 | 53 | 154 | 7.0 | 9.0 | 0.00 | 0.04 | 0.00 | 81 | 1011.2 |
| 20260508124009 | 52 | 145 | 6.0 | 8.0 | 0.00 | 0.04 | 0.00 | 82 | 1011.2 |
| 20260508123510 | 52 | 146 | 6.0 | 8.0 | 0.00 | 0.04 | 0.00 | 82 | 1011.3 |
| 20260508123010 | 52 | 172 | 5.0 | 7.0 | 0.00 | 0.04 | 0.00 | 82 | 1011.3 |
| 20260508122503 | 51 | 159 | 5.0 | 6.0 | 0.00 | 0.04 | 0.00 | 84 | 1011.3 |
| 20260508122006 | 51 | 162 | 3.0 | 6.0 | 0.00 | 0.04 | 0.00 | 85 | 1011.4 |
| 20260508121006 | 50 | 154 | 1.0 | 2.0 | 0.00 | 0.04 | 0.00 | 86 | 1011.4 |
| 20260508120507 | 50 | 130 | 1.0 | 3.0 | 0.00 | 0.04 | 0.00 | 85 | 1011.4 |
| 20260508120017 | 50 | 141 | 1.0 | 5.0 | 0.00 | 0.04 | 0.00 | 85 | 1011.3 |
| 20260508115509 | 50 | 113 | 2.0 | 8.0 | 0.00 | 0.04 | 0.00 | 85 | 1011.0 |
| 20260508114521 | 50 | 169 | 5.0 | 8.0 | 0.00 | 0.04 | 0.00 | 85 | 1010.9 |
| 20260508114008 | 49 | 141 | 5.0 | 8.0 | 0.00 | 0.04 | 0.00 | 86 | 1010.9 |
| 20260508113507 | 49 | 159 | 5.0 | 8.0 | 0.00 | 0.04 | 0.00 | 87 | 1010.8 |
| 20260508113025 | 49 | 165 | 6.0 | 9.0 | 0.00 | 0.04 | 0.00 | 87 | 1010.9 |
| 20260508112508 | 48 | 167 | 7.0 | 9.0 | 0.00 | 0.04 | 0.00 | 87 | 1010.8 |
| 20260508112010 | 48 | 164 | 7.0 | 9.0 | 0.00 | 0.04 | 0.00 | 87 | 1010.8 |
| 20260508111514 | 48 | 167 | 6.0 | 8.0 | 0.00 | 0.04 | 0.00 | 87 | 1010.7 |